Hourly Data Report for October 27, 2016

All times are specified in Local Standard Time (LST). Add 1 hour to adjust for Daylight Saving Time where and when it is observed.

EUREKA CLIMATE
NUNAVUT

79°59'21.000" N
85°56'02.000" W
10.00 m
2401199
71613
NEK

Download Data

Hourly Data (October 2016)
Hourly Data Report for October 27, 2016
Temp Definition
°C
Dew Point Temp Definition
°C
Rel Hum Definition
%
Wind Dir Definition
10's deg

Wind Spd Definition
km/h
Visibility Definition
km
Stn Press Definition
kPa
Hmdx Definition


Wind Chill Definition


Weather Definition


TIME
00:00 -23.1 -25.4 81 9 4   101.63   -27 LegendNANA
01:00 -24.0 -26.4 81 6 6   101.71   -30 LegendNANA
02:00 -25.2 -27.7 80 5 6   101.79   -31 LegendNANA
03:00 -25.1 -27.6 80 11 8   101.87   -32 LegendNANA
04:00 -25.7 -28.1 80 8 5   101.93   -31 LegendNANA
05:00 -26.3 -28.8 80 4 5   102.01   -31 LegendNANA
06:00 -26.2 -28.6 80 11 6   102.06   -32 LegendNANA
07:00 -26.3 -28.8 79 12 4   102.12   -30 LegendNANA
08:00 -26.3 -28.8 79 10 4   102.17   -30 LegendNANA
09:00 -26.9 -29.6 78 4 7   102.23   -34 LegendNANA
10:00 -27.5 -30.1 78 7 4   102.29   -32 LegendNANA
11:00 -28.0 -30.7 78 12 6   102.35   -34 LegendNANA
12:00 -28.0 -30.6 79 6 2   102.40   -30 LegendNANA
13:00 -28.2 -30.8 78 10 3   102.45   -31 LegendNANA
14:00 -28.5 -31.2 78 36 2   102.53   -31 LegendNANA
15:00 -29.1 -31.9 77 2 5   102.59   -35 LegendNANA
16:00 -28.8 -31.5 78 36 2   102.64   -31 LegendNANA
17:00 -27.6 -30.2 78 6 2   102.67   -30 LegendNANA
18:00 -28.9 -31.5 78 9 11   102.73   -38 LegendNANA
19:00 -29.0 -31.7 77 7 3   102.75   -32 LegendNANA
20:00 -29.4 -32.1 77 11 9   102.79   -38 LegendNANA
21:00 -29.4 -32.2 77 12 7   102.82   -37 LegendNANA
22:00 -29.2 -32.0 77 11 5   102.83   -35 LegendNANA
23:00 -29.6 -32.4 77 5 4   102.84   -34 LegendNANA

Notes on Data Quality.

Legend

  • E = Estimated
  • M = Missing
  • NA = Not Available
  • ‡ = Partner data that is not subject to review by the National Climate Archives
Date modified: